User: anonymous   Login
Location: Unspecified
(0.0000°N, 0.0000°E)
Time: 07:19:06
(UTC+00:00)
Language:

Diademe D-1C - Orbit

View from above orbital plane
View from above orbital plane
View from above satellite
View from above satellite

Ground track
Ground track

The orbit is defined by the following mean orbital elements,

1 02674U          26106.80072428 +.00000000 +00000-0 +39963-3 0 00001
2 02674  39.9167 280.4598 0205667 187.2678 172.5105 14.74227262    05
Epoch (UTC): 16 April 2026 19:13:02
Eccentricity: 0.0205667
inclination: 39.9167°
perigee height: 503 km
apogee height: 792 km
right ascension of ascending node: 280.4598°
argument of perigee: 187.2678°
revolutions per day: 14.74227262
mean anomaly at epoch: 172.5105°

The dashed part of the orbit path shows where the satellite is in the earth's shadow,  

DLR